CDT,Max TemperatureF,Mean TemperatureF,Min TemperatureF,Max Dew PointF,MeanDew PointF,Min DewpointF,Max Humidity, Mean Humidity, Min Humidity, Max Sea Level PressureIn, Mean Sea Level PressureIn, Min Sea Level PressureIn, Max VisibilityMiles, Mean VisibilityMiles, Min VisibilityMiles, Max Wind SpeedMPH, Mean Wind SpeedMPH, Max Gust SpeedMPH,PrecipitationIn, CloudCover, Events, WindDirDegrees
2011-10-1,78,57,36,39,37,33,85,53,21,30.25,30.18,30.12,10,10,10,22,8,28,0.00,0,,165
2011-10-2,82,59,36,40,37,33,85,53,20,30.18,30.11,30.04,10,10,10,22,9,29,0.00,0,,152
2011-10-3,82,61,39,45,42,36,86,56,26,30.11,30.06,30.02,10,10,10,18,5,24,0.00,0,,136
2011-10-4,91,69,47,47,43,36,86,50,14,30.04,29.98,29.90,10,10,7,28,10,38,0.00,0,,160
2011-10-5,83,67,50,45,40,36,71,46,20,29.98,29.90,29.81,10,10,10,30,15,43,0.00,0,,159
2011-10-6,80,68,56,56,50,43,78,58,38,29.83,29.72,29.60,10,10,4,38,22,53,0.06,3,Rain,157
2011-10-7,81,71,61,64,57,46,90,60,30,29.88,29.78,29.65,10,10,8,33,16,47,0.25,5,Rain-Thunderstorm,176
2011-10-8,67,63,59,61,59,56,97,88,78,30.07,29.96,29.84,10,8,5,23,6,32,0.89,8,Rain-Thunderstorm,151
2011-10-9,61,57,52,59,56,51,100,95,90,30.09,30.03,29.95,10,7,1,18,6,24,1.28,8,Rain,152
2011-10-10,70,60,50,52,48,46,100,72,44,30.02,29.97,29.88,10,10,10,21,9,30,0.00,4,,196
2011-10-11,62,54,45,54,49,45,100,86,72,29.88,29.80,29.73,10,7,0,14,5,16,0.00,4,Fog,173
2011-10-12,67,55,42,47,43,37,100,72,43,29.93,29.78,29.70,10,5,0,26,11,37,0.00,2,Fog,311
2011-10-13,70,53,35,38,35,32,85,55,25,29.97,29.91,29.84,10,10,10,21,9,26,0.00,0,,312
2011-10-14,61,48,34,36,32,25,82,55,28,30.11,30.04,29.94,10,10,10,24,9,31,0.00,2,,310
2011-10-15,77,54,30,46,37,28,92,61,29,30.09,29.91,29.70,10,10,10,21,7,26,0.00,0,,212
2011-10-16,60,47,34,39,35,31,89,61,33,30.13,30.05,29.81,10,10,10,18,8,25,0.00,0,,339
2011-10-17,47,42,37,43,39,34,92,86,79,30.16,30.09,30.01,10,10,8,20,6,24,0.34,7,Rain,330
2011-10-18,54,45,35,35,30,27,92,65,38,30.25,30.19,30.12,10,10,10,28,12,36,0.00,1,,330
2011-10-19,51,39,26,33,27,21,92,65,38,30.23,30.17,30.10,10,10,10,21,7,26,0.00,1,,343
2011-10-20,54,37,20,31,26,18,92,67,41,30.17,30.10,30.01,10,10,10,9,2,12,0.00,0,,205
2011-10-21,74,51,27,41,35,26,92,59,25,30.13,30.08,30.02,10,10,10,13,3,24,0.00,0,,352
2011-10-22,61,50,38,47,41,37,92,72,51,30.13,30.09,30.03,10,10,10,12,3,16,0.00,2,,160
2011-10-23,73,53,32,45,36,31,100,63,25,30.07,29.99,29.95,10,6,0,22,5,25,0.00,1,Fog,312
2011-10-24,73,54,35,43,37,33,92,62,31,30.10,29.95,29.74,10,10,10,15,4,20,0.00,0,,189
2011-10-25,58,47,36,41,38,35,100,76,51,30.15,29.89,29.67,10,10,10,29,13,36,T,0,Rain,339
2011-10-26,46,39,31,41,33,29,89,71,53,30.24,30.19,30.15,10,10,10,20,11,25,0.01,6,Rain,335
2011-10-27,53,37,21,30,23,19,96,62,28,30.22,30.17,30.11,10,10,10,17,4,23,0.00,0,,267
2011-10-28,56,39,22,31,23,20,88,58,28,30.30,30.24,30.17,10,10,10,20,6,24,0.00,1,,317
2011-10-29,63,43,23,34,28,21,92,60,27,30.15,29.94,29.75,10,10,10,16,6,22,0.00,1,,218
2011-10-30,59,42,24,34,25,18,75,47,19,30.13,30.07,29.95,10,10,10,28,12,37,0.00,0,,304
2011-10-31,72,47,21,36,28,18,88,57,25,30.12,29.97,29.81,10,10,10,18,6,23,0.00,0,,194